User: anonymous   Login
Location: Vallejo Observatory
(38.1221°N, 122.2109°W)
Time: 06:53:29
(UTC-07:00)
Language:

MOS 1 Rocket - Orbit

View from above orbital plane
View from above orbital plane
View from above satellite
View from above satellite

Ground track
Ground track

The orbit data is extracted from the following two-line orbital elements,

1 17528U 87018B   15147.15810262  .00000275  00000-0  69524-4 0  9994
2 17528 097.4170 181.8063 0154314 135.1573 267.6913 14.50417587490855
Epoch (UTC): 27 May 2015 03:47:40
Eccentricity: 0.0154314
inclination: 97.4170°
perigee height: 614 km
apogee height: 834 km
right ascension of ascending node: 181.8063°
argument of perigee: 135.1573°
revolutions per day: 14.50417587
mean anomaly at epoch: 267.6913°
orbit number at epoch: 49085

The dashed part of the orbit path shows where the satellite is in the earth's shadow,  

DLR